Flag for U.S.A. Weather past 2 weeks in Jersey City, New Jersey, U.S.A.

Now
37 °F

Passing clouds.


Feels Like: 30 °F
Forecast: 32 / 40 °F
Wind: 9 mph from West

Location: Newark International Airport

Current Time: Dec 19, 2014 at 12:05:33 AM

Latest Report: Dec 18, 2014 at 10:51 PM


Visibility: 10 mi

Pressure: 29.98 "Hg

Humidity: 65%

Dew point: 26 °F

Location of Jersey CityLocation

Historic Weather in Jersey City — Graph

°F

Jersey City temperature yesterday

Maximum temperature yesterday: 42 °F (at 10:51 AM)
Minimum temperature yesterday: 37 °F (at 5:51 AM)
Average temperature yesterday: 39 °F

Past Weeks' High & Low Weather Summary

 TemperatureHumidityPressure
High53 °F (Dec 17, 10:51 AM)100% (Dec 6, 12:51 AM)30.69 "Hg (Dec 6, 12:51 AM)
Low24 °F (Dec 8, 3:51 AM)30% (Dec 7, 4:51 PM)29.60 "Hg (Dec 10, 2:51 PM)
Average39 °F69%30.07 "Hg
* Reported Dec 3 9:51 PM — Dec 18 9:51 PM, Jersey City, Weather by CustomWeather, © 2014

Note: Actual official high and low records may vary slightly from our data, if they occured in-between our weather recording intervals... More about our weather records

Advertising

Jersey City weather history for previous 24 hours

 ConditionsComfort  
Time TempWeatherWind HumidityBarometerVisibility
9:51 PM
Dec 18
37 °FPassing clouds.9 mph67%29.98 "Hg10 mi
8:51 PM38 °FPassing clouds.10 mph65%29.98 "Hg10 mi
7:51 PM38 °FPartly cloudy.12 mph63%29.98 "Hg10 mi
6:51 PM39 °FPassing clouds.13 mph60%29.97 "Hg10 mi
5:51 PM39 °FPassing clouds.16 mph60%29.98 "Hg10 mi
4:51 PM40 °FPassing clouds.20 mph55%29.98 "Hg10 mi
3:51 PM41 °FPartly sunny.22 mph53%29.97 "Hg10 mi
2:51 PM42 °FPartly sunny.17 mph49%29.95 "Hg10 mi
1:51 PM42 °FPartly sunny.18 mph47%29.95 "Hg10 mi
12:51 PM42 °FPartly sunny.16 mph47%29.96 "Hg10 mi
11:51 AM41 °FPartly sunny.14 mph49%29.98 "Hg10 mi
10:51 AM42 °FPartly sunny.16 mph47%29.99 "Hg10 mi
9:51 AM41 °FScattered clouds.20 mph49%30.00 "Hg10 mi
8:51 AM38 °FPartly sunny.14 mph53%29.99 "Hg10 mi
7:51 AM38 °FPartly sunny.21 mph53%29.98 "Hg10 mi
6:51 AM38 °FOvercast.9 mph53%29.97 "Hg10 mi
5:51 AM37 °FPassing clouds.10 mph57%29.96 "Hg10 mi
4:51 AM38 °FPassing clouds.14 mph58%29.93 "Hg10 mi
3:51 AM39 °FOvercast.13 mph60%29.92 "Hg10 mi
2:51 AM39 °FOvercast.12 mph57%29.92 "Hg10 mi
1:51 AM39 °FMostly cloudy.16 mph57%29.90 "Hg10 mi
12:51 AM39 °FPassing clouds.13 mph60%29.89 "Hg10 mi
Weather by CustomWeather, © 2014

See weather overviewHow to use our weather pages